Location: Mannheim
(49.4880°N, 8.4650°E)
Time: 06:18:06
(UTC+02:00)

ISS - Pass Details

Date: 19 September 2023
Orbit: 414 x 421 km, 51.6° (Epoch: 02 October)

Event Time Altitude Azimuth Distance (km) Brightness Sun altitude
Rises 22:21:08 0° 278° (W) 2,358 1.0 -26.4°
Reaches altitude 10° 22:23:15 10° 283° (WNW) 1,497 -0.2 -26.6°
Enters shadow 22:24:42 23° 291° (WNW) 933 -1.4 -26.8°
